FW3601 Weather Reports


time (UTC)temp
C
wind
direction
speed
KPH
gust
KPH
rain 1hr
cm
rain 24hr
cm
rain mn
cm
humidity
%
barometer
mb
20260507220205 3 261 0.0 0.0 0.00 0.00 0.00 66 1019.5
20260507215704 3 261 0.0 0.0 0.00 0.00 0.00 65 1019.5
20260507215204 3 261 0.0 0.0 0.00 0.00 0.00 64 1019.4
20260507214705 3 261 0.0 0.0 0.00 0.00 0.00 64 1019.5
20260507214206 3 261 0.0 0.0 0.00 0.00 0.00 64 1019.5
20260507213207 4 261 0.0 0.0 0.00 0.00 0.00 62 1019.4
20260507212707 4 261 0.0 0.0 0.00 0.00 0.00 61 1019.4
20260507212206 5 261 0.0 0.0 0.00 0.00 0.00 60 1019.4
20260507211206 5 261 0.0 0.0 0.00 0.00 0.00 58 1019.3
20260507210707 5 261 0.0 0.0 0.00 0.00 0.00 57 1019.2
20260507210207 5 261 0.0 0.0 0.00 0.00 0.00 57 1019.1
20260507205205 5 261 0.0 0.0 0.00 0.00 0.00 57 1019.1
20260507204721 6 261 0.0 0.0 0.00 0.00 0.00 56 1019.0
20260507204208 6 261 0.0 0.0 0.00 0.00 0.00 55 1019.0
20260507203205 6 261 0.0 0.0 0.00 0.00 0.00 54 1018.9
20260507202705 6 261 0.0 0.0 0.00 0.00 0.00 53 1018.9
20260507202205 7 261 0.0 0.0 0.00 0.00 0.00 52 1018.9
20260507201656 3 276 0.0 0.0 0.00 0.00 0.00 72 1012.4
20260507201208 7 261 0.0 0.0 0.00 0.00 0.00 49 1018.9
20260507200704 7 261 0.0 0.0 0.00 0.00 0.00 50 1018.8
20260507200207 8 261 0.0 0.0 0.00 0.00 0.00 49 1018.7
20260507195706 8 261 0.0 0.0 0.00 0.00 0.00 48 1018.6
20260507194711 8 261 0.0 0.0 0.00 0.00 0.00 47 1018.5
20260507194205 8 261 0.0 3.2 0.00 0.00 0.00 46 1018.5
20260507193855 14 252 4.8 12.9 0.00 0.00 0.00 24 1010.5
20260507193705 9 261 0.0 4.8 0.00 0.00 0.00 43 1018.4
20260507193206 9 261 1.6 4.8 0.00 0.00 0.00 42 1018.3
20260507192205 10 261 1.6 3.2 0.00 0.00 0.00 40 1018.2
20260507191206 11 261 0.0 4.8 0.00 0.00 0.00 38 1018.0
20260507190705 11 261 1.6 6.4 0.00 0.00 0.00 38 1018.0
20260507185209 12 260 1.6 4.8 0.00 0.00 0.00 36 1017.8
20260507185020 12 260 1.6 8.0 0.00 0.00 0.00 35 1017.7
20260507184209 12 260 3.2 9.7 0.00 0.00 0.00 34 1017.6
20260507183706 12 260 3.2 9.7 0.00 0.00 0.00 34 1017.6
20260507183205 12 260 3.2 14.5 0.00 0.00 0.00 34 1017.5
20260507182706 12 263 3.2 14.5 0.00 0.00 0.00 33 1017.5
20260507182207 13 264 3.2 14.5 0.00 0.00 0.00 32 1017.4
20260507181205 13 277 8.0 16.1 0.00 0.00 0.00 31 1017.4
20260507180206 13 280 8.0 16.1 0.00 0.00 0.00 30 1017.2
20260507175705 13 258 6.4 16.1 0.00 0.00 0.00 30 1017.2
20260507175208 13 265 6.4 16.1 0.00 0.00 0.00 31 1017.1
20260507174705 13 261 6.4 16.1 0.00 0.00 0.00 30 1017.0
20260507174205 14 300 6.4 16.1 0.00 0.00 0.00 30 1017.0
20260507173704 14 320 6.4 16.1 0.00 0.00 0.00 29 1017.0
20260507173205 14 240 4.8 16.1 0.00 0.00 0.00 29 1017.0
20260507172705 14 259 6.4 16.1 0.00 0.00 0.00 30 1016.9
20260507172205 14 267 8.0 20.9 0.00 0.00 0.00 30 1016.9
20260507171706 14 258 9.7 20.9 0.00 0.00 0.00 29 1016.8
20260507171333 11 286 8.0 20.9 0.00 0.00 0.00 27 1010.3
20260507170707 15 276 8.0 22.5 0.00 0.00 0.00 29 1016.7
20260507170207 15 265 9.7 22.5 0.00 0.00 0.00 29 1016.6
20260507165705 15 293 9.7 17.7 0.00 0.00 0.00 28 1016.6
20260507164713 15 231 8.0 19.3 0.00 0.00 0.00 27 1016.5
20260507164207 15 257 9.7 19.3 0.00 0.00 0.00 27 1016.5
20260507163711 15 36 8.0 19.3 0.00 0.00 0.00 28 1016.4
20260507162705 15 243 9.7 20.9 0.00 0.00 0.00 28 1016.3
20260507162206 15 287 8.0 20.9 0.00 0.00 0.00 27 1016.3
20260507161721 15 296 8.0 20.9 0.00 0.00 0.00 28 1016.3
20260507160707 15 286 4.8 12.9 0.00 0.00 0.00 28 1016.2
20260507160258 15 298 4.8 12.9 0.00 0.00 0.00 26 1016.2
20260507160101 7 219 11.3 25.7 0.00 0.10 0.10 84 1007.4
20260507155708 16 298 4.8 12.9 0.00 0.00 0.00 26 1016.2
20260507155208 16 304 4.8 14.5 0.00 0.00 0.00 26 1016.2
20260507154206 16 277 4.8 14.5 0.00 0.00 0.00 27 1016.1
20260507153706 16 343 4.8 27.4 0.00 0.00 0.00 27 1016.1
20260507153206 16 271 4.8 27.4 0.00 0.00 0.00 26 1016.0
20260507152706 16 306 6.4 27.4 0.00 0.00 0.00 26 1016.0
20260507152205 16 346 6.4 12.9 0.00 0.00 0.00 26 1015.9
20260507151710 16 333 4.8 12.9 0.00 0.00 0.00 27 1016.0
20260507151205 16 242 4.8 12.9 0.00 0.00 0.00 27 1016.0
20260507150705 15 325 4.8 12.9 0.00 0.00 0.00 27 1016.0
20260507150206 15 134 6.4 12.9 0.00 0.00 0.00 27 1015.9
20260507145707 15 190 6.4 16.1 0.00 0.00 0.00 26 1016.0
20260507145205 16 234 6.4 16.1 0.00 0.00 0.00 26 1016.0
20260507143707 16 300 3.2 11.3 0.00 0.00 0.00 29 1015.9
20260507143204 16 214 4.8 14.5 0.00 0.00 0.00 28 1015.9
20260507142710 16 217 4.8 14.5 0.00 0.00 0.00 26 1015.9
20260507141205 16 298 6.4 14.5 0.00 0.00 0.00 27 1015.9
20260507140706 16 313 6.4 14.5 0.00 0.00 0.00 26 1016.0
20260507135705 16 290 3.2 22.5 0.00 0.00 0.00 26 1015.9
20260507134707 16 259 6.4 22.5 0.00 0.00 0.00 29 1015.9
20260507134205 15 219 4.8 14.5 0.00 0.00 0.00 28 1015.9
20260507133706 15 216 4.8 14.5 0.00 0.00 0.00 27 1015.9
20260507132706 15 271 6.4 20.9 0.00 0.00 0.00 29 1015.9
20260507132204 15 329 6.4 17.7 0.00 0.00 0.00 28 1015.9
20260507131706 15 242 4.8 14.5 0.00 0.00 0.00 29 1015.9
20260507131204 15 253 6.4 14.5 0.00 0.00 0.00 27 1015.8
20260507130704 15 294 6.4 12.9 0.00 0.00 0.00 28 1015.8
20260507125206 15 111 4.8 14.5 0.00 0.00 0.00 28 1015.8
20260507124705 15 30 6.4 14.5 0.00 0.00 0.00 30 1015.8
20260507124205 15 332 6.4 14.5 0.00 0.00 0.00 29 1015.7
20260507123704 15 316 4.8 14.5 0.00 0.00 0.00 28 1015.7
20260507122708 15 186 6.4 12.9 0.00 0.00 0.00 27 1015.7
20260507122205 15 234 4.8 14.5 0.00 0.00 0.00 28 1015.7
20260507121717 15 275 6.4 16.1 0.00 0.00 0.00 29 1015.8
20260507121206 15 316 6.4 16.1 0.00 0.00 0.00 28 1015.7
20260507120705 15 275 6.4 16.1 0.00 0.00 0.00 30 1015.7
20260507120206 15 313 4.8 14.5 0.00 0.00 0.00 29 1015.7
20260507115706 15 32 4.8 12.9 0.00 0.00 0.00 29 1015.7
20260507115206 15 0 3.2 12.9 0.00 0.00 0.00 31 1015.7
20260507114705 15 59 3.2 14.5 0.00 0.00 0.00 29 1015.6
20260507114206 15 323 4.8 14.5 0.00 0.00 0.00 31 1015.7
20260507113705 14 299 8.0 12.9 0.00 0.00 0.00 29 1015.8
20260507113205 14 214 6.4 12.9 0.00 0.00 0.00 29 1015.7
20260507112926 7 276 0.0 1.6 0.00 0.00 0.00 54 1011.3
20260507112710 15 348 4.8 12.9 0.00 0.00 0.00 29 1015.8
20260507112208 15 283 4.8 12.9 0.00 0.00 0.00 29 1015.7
20260507111207 14 309 3.2 6.4 0.00 0.00 0.00 30 1015.8
20260507110706 14 133 3.2 14.5 0.00 0.00 0.00 31 1015.8
20260507105705 13 77 4.8 17.7 0.00 0.00 0.00 31 1015.8
20260507105207 13 321 4.8 17.7 0.00 0.00 0.00 31 1015.8
20260507104207 13 62 4.8 14.5 0.00 0.00 0.00 30 1015.7
20260507103205 13 71 4.8 14.5 0.00 0.00 0.00 31 1015.7
20260507102205 13 336 4.8 6.4 0.00 0.00 0.00 31 1015.6
20260507100207 13 283 8.0 16.1 0.00 0.00 0.00 32 1015.4
20260507095705 13 244 6.4 14.5 0.00 0.00 0.00 32 1015.5
20260507095205 13 282 4.8 11.3 0.00 0.00 0.00 33 1015.3
20260507094205 13 240 1.6 11.3 0.00 0.00 0.00 33 1015.3
20260507093705 12 202 3.2 20.9 0.00 0.00 0.00 33 1015.2
20260507093205 12 105 6.4 20.9 0.00 0.00 0.00 33 1015.2
20260507092704 12 333 8.0 20.9 0.00 0.00 0.00 35 1015.2
20260507092214 12 338 6.4 12.9 0.00 0.00 0.00 32 1015.3
20260507091734 12 311 6.4 12.9 0.00 0.00 0.00 36 1015.3
20260507090205 12 52 4.8 16.1 0.00 0.00 0.00 37 1015.3
20260507085206 12 273 6.4 16.1 0.00 0.00 0.00 40 1015.3
20260507084711 12 235 3.2 14.5 0.00 0.00 0.00 42 1015.3
20260507084205 11 263 4.8 14.5 0.00 0.00 0.00 41 1015.4
20260507083705 11 5 4.8 14.5 0.00 0.00 0.00 41 1015.4
20260507082705 11 310 4.8 12.9 0.00 0.00 0.00 44 1015.3
20260507082205 11 62 4.8 12.9 0.00 0.00 0.00 43 1015.3
20260507081705 11 304 4.8 12.9 0.00 0.00 0.00 44 1015.2
20260507081204 11 255 4.8 11.3 0.00 0.00 0.00 41 1015.2
20260507075705 10 238 4.8 11.3 0.00 0.00 0.00 46 1015.0
20260507075206 10 254 4.8 12.9 0.00 0.00 0.00 45 1015.0
20260507074736 10 277 4.8 12.9 0.00 0.00 0.00 48 1015.0
20260507074209 10 211 4.8 12.9 0.00 0.00 0.00 50 1015.0
20260507073705 10 232 3.2 11.3 0.00 0.00 0.00 50 1014.9
20260507072705 10 263 4.8 11.3 0.00 0.00 0.00 52 1014.8
20260507072205 10 279 4.8 11.3 0.00 0.00 0.00 52 1014.9
20260507071710 10 264 4.8 11.3 0.00 0.00 0.00 54 1014.8
20260507071205 10 225 4.8 11.3 0.00 0.00 0.00 55 1014.8
20260507070706 9 242 3.2 11.3 0.00 0.00 0.00 56 1014.8
20260507070205 9 322 3.2 11.3 0.00 0.00 0.00 57 1014.8
20260507065706 9 266 4.8 11.3 0.00 0.00 0.00 59 1014.8
20260507065205 8 238 4.8 12.9 0.00 0.00 0.00 60 1014.8
20260507064707 8 231 4.8 12.9 0.00 0.00 0.00 60 1014.8
20260507064513 8 252 4.8 12.9 0.00 0.00 0.00 60 1014.8
20260507063709 8 257 4.8 11.3 0.00 0.00 0.00 60 1014.8
20260507063207 8 239 6.4 11.3 0.00 0.00 0.00 64 1014.7
20260507062705 8 271 4.8 12.9 0.00 0.00 0.00 64 1014.7
20260507062206 8 272 4.8 12.9 0.00 0.00 0.00 65 1014.7
20260507061717 7 248 4.8 12.9 0.00 0.00 0.00 65 1014.6
20260507060207 6 243 1.6 4.8 0.00 0.00 0.00 76 1014.5
20260507055705 6 243 0.0 0.0 0.00 0.00 0.00 76 1014.5
20260507055204 6 275 0.0 0.0 0.00 0.00 0.00 78 1014.5
20260507054707 5 275 0.0 0.0 0.00 0.00 0.00 79 1014.4
20260507054211 5 275 0.0 0.0 0.00 0.00 0.00 79 1014.4
20260507053207 5 275 0.0 0.0 0.00 0.00 0.00 80 1014.3
20260507052705 5 275 0.0 0.0 0.00 0.00 0.00 83 1014.2
20260507052206 4 275 0.0 0.0 0.00 0.00 0.00 85 1014.2
20260507051720 3 275 0.0 0.0 0.00 0.00 0.00 86 1014.2
20260507051206 2 275 0.0 0.0 0.00 0.00 0.00 87 1014.2
20260507050205 1 275 0.0 0.0 0.00 0.00 0.00 87 1014.0
20260507045705 1 275 0.0 0.0 0.00 0.00 0.00 87 1014.0
20260507045205 1 276 0.0 0.0 0.00 0.00 0.00 86 1014.0
20260507044708 0 276 0.0 0.0 0.00 0.00 0.00 86 1014.0
20260507044206 0 276 0.0 0.0 0.00 0.00 0.00 86 1014.0
20260507043705 0 276 0.0 0.0 0.00 0.00 0.00 87 1014.0
20260507043207 0 276 0.0 0.0 0.00 0.00 0.00 86 1013.9
20260507042707 0 276 0.0 0.0 0.00 0.00 0.00 86 1014.0
20260507041714 -1 276 0.0 0.0 0.00 0.00 0.00 86 1013.8
20260507040707 -1 276 0.0 0.0 0.00 0.00 0.00 86 1013.8
20260507040205 -1 276 0.0 0.0 0.00 0.00 0.00 86 1013.8
20260507035705 -1 276 0.0 0.0 0.00 0.00 0.00 86 1013.8
20260507035204 -1 276 0.0 0.0 0.00 0.00 0.00 86 1013.8
20260507034704 -1 275 0.0 0.0 0.00 0.00 0.00 86 1013.7
20260507034205 -1 276 0.0 0.0 0.00 0.00 0.00 86 1013.7
20260507033705 -1 276 0.0 0.0 0.00 0.00 0.00 87 1013.7
20260507033207 -2 275 0.0 0.0 0.00 0.00 0.00 86 1013.6
20260507032205 -2 275 0.0 0.0 0.00 0.00 0.00 85 1013.6
20260507031705 -2 276 0.0 0.0 0.00 0.00 0.00 85 1013.6
20260507031205 -2 276 0.0 0.0 0.00 0.00 0.00 85 1013.6
20260507030705 -2 275 0.0 0.0 0.00 0.00 0.00 85 1013.5
20260507025205 -1 275 0.0 0.0 0.00 0.00 0.00 84 1013.5
20260507024704 -1 276 0.0 0.0 0.00 0.00 0.00 84 1013.4
20260507024205 -1 275 0.0 0.0 0.00 0.00 0.00 84 1013.4
20260507023704 -1 275 0.0 0.0 0.00 0.00 0.00 84 1013.4
20260507022704 -1 276 0.0 0.0 0.00 0.00 0.00 84 1013.3
20260507022204 -1 275 0.0 0.0 0.00 0.00 0.00 84 1013.3
20260507021711 -1 275 0.0 0.0 0.00 0.00 0.00 84 1013.1
20260507021204 -1 275 0.0 0.0 0.00 0.00 0.00 83 1013.1
20260507020704 -1 276 0.0 0.0 0.00 0.00 0.00 84 1013.2
20260507020204 -1 276 0.0 0.0 0.00 0.00 0.00 83 1013.1
20260507015204 0 275 0.0 0.0 0.00 0.00 0.00 82 1013.1
20260507014708 0 275 0.0 0.0 0.00 0.00 0.00 82 1013.1
20260507014205 0 275 0.0 0.0 0.00 0.00 0.00 82 1013.0
20260507013704 0 276 0.0 0.0 0.00 0.00 0.00 82 1013.1
20260507012706 0 276 0.0 0.0 0.00 0.00 0.00 81 1013.0
20260507012205 0 275 0.0 0.0 0.00 0.00 0.00 80 1013.0
20260507011704 0 275 0.0 0.0 0.00 0.00 0.00 80 1013.0
20260507011211 0 276 0.0 0.0 0.00 0.00 0.00 80 1012.9
20260507010716 0 275 0.0 0.0 0.00 0.00 0.00 80 1012.9
20260507005711 0 275 0.0 0.0 0.00 0.00 0.00 80 1012.8
20260507005206 0 276 0.0 0.0 0.00 0.00 0.00 79 1012.9
20260507005029 0 275 0.0 0.0 0.00 0.00 0.00 79 1012.8
20260507004206 0 275 0.0 0.0 0.00 0.00 0.00 78 1012.8
20260507003706 0 275 0.0 0.0 0.00 0.00 0.00 78 1012.8
20260507003206 1 275 0.0 0.0 0.00 0.00 0.00 78 1012.7
20260507002705 1 275 0.0 0.0 0.00 0.00 0.00 77 1012.8
20260507002206 1 275 0.0 0.0 0.00 0.00 0.00 77 1012.7
20260507001712 1 275 0.0 0.0 0.00 0.00 0.00 77 1012.7
20260507001205 1 275 0.0 0.0 0.00 0.00 0.00 76 1012.6
20260507000705 1 276 0.0 0.0 0.00 0.00 0.00 75 1012.6
20260506235706 1 275 0.0 0.0 0.00 0.00 0.00 75 1012.5
20260506235205 2 276 0.0 0.0 0.00 0.00 0.00 74 1012.5
20260506234711 2 275 0.0 0.0 0.00 0.00 0.00 73 1012.5
20260506234206 2 275 0.0 0.0 0.00 0.00 0.00 73 1012.4
20260506233705 2 275 0.0 0.0 0.00 0.00 0.00 73 1012.4
20260506233205 2 275 0.0 0.0 0.00 0.00 0.00 73 1012.4
20260506232707 2 275 0.0 0.0 0.00 0.00 0.00 73 1012.5
20260506232205 2 276 0.0 0.0 0.00 0.00 0.00 72 1012.5
20260506231707 3 276 0.0 0.0 0.00 0.00 0.00 72 1012.4
20260506230709 3 276 0.0 0.0 0.00 0.00 0.00 73 1012.3
20260506225707 2 276 0.0 0.0 0.00 0.00 0.00 73 1012.2
20260506225517 2 276 0.0 0.0 0.00 0.00 0.00 73 1012.1
20260506224726 2 276 0.0 0.0 0.00 0.00 0.00 74 1012.1
20260506224206 2 276 0.0 0.0 0.00 0.00 0.00 74 1012.1
20260506223705 2 276 0.0 0.0 0.00 0.00 0.00 74 1012.1
20260506223204 2 276 0.0 0.0 0.00 0.00 0.00 74 1012.1
20260506222706 2 276 0.0 0.0 0.00 0.00 0.00 73 1012.0
20260506222208 2 276 0.0 0.0 0.00 0.00 0.00 73 1012.0
20260506221710 2 276 0.0 0.0 0.00 0.00 0.00 73 1012.0
20260506221210 2 276 0.0 0.0 0.00 0.00 0.00 73 1012.0